Regional Weather Roundup
Issued by NWS

Home | Current Version | Previous Version | Text Only | Print | Product List | Glossary Off
Versions: 1 2 3 4 5 6 7 8 9 10 11 12 13 14 15 16 17 18 19 20 21 22 23 24 25 26 27 28 29 30 31 32 33 34 35 36 37 38 39 40 41 42 43 44 45 46 47 48

000
ASUS45 KBOU 202110
RWRCO

WEATHER ROUNDUP FOR COLORADO
NATIONAL WEATHER SERVICE DENVER/BOULDER CO
300 PM MDT FRI APR 20 2018

NOTE: "FAIR" INDICATES FEW OR NO CLOUDS BELOW 12000 FEET WITH NO
SIGNIFICANT WEATHER AND/OR OBSTRUCTIONS TO VISIBILITY.

COZ001>005-013-030-031-202200-
...NORTHWEST COLORADO...

CITY           SKY/WX    TMP DP  RH WIND       PRES   REMARKS
CRAIG          CLOUDY    40  37  89 SW15      29.91R
HAYDEN         CLOUDY    41  36  82 W12       29.91R
MEEKER         LGT RAIN  40  34  79 W10       29.94R
RANGELY        LGT RAIN  38  36  92 W7        29.99R
RABBIT EARS PA CLOUDY    32  30  93 CALM      29.94R FOG
STEAMBOAT SPGS CLOUDY    40  36  86 SW5       29.89R
WALDEN         CLOUDY    45  23  42 N15       29.88R
$$

COZ006>008-011-202200-
...WEST CENTRAL VALLEYS...

CITY           SKY/WX    TMP DP  RH WIND       PRES   REMARKS
GRAND JUNCTION CLOUDY    46  31  55 N12       29.98R
MONTROSE       PTSUNNY   48  23  37 NW14      29.97R
EAGLE          LGT RAIN  40  34  79 W14       29.95R
RIFLE          LGT RAIN  39  34  82 W10G20    29.99R
DELTA          FAIR      53  28  38 SE5       29.96S
NUCLA          CLOUDY    52   5  15 NW3       29.96R
$$

COZ017>023-064>068-202200-
...SOUTHWEST COLORADO...

CITY           SKY/WX    TMP DP  RH WIND       PRES   REMARKS
DURANGO        PTSUNNY   46  16  30 NW16G22   29.95F
CORTEZ         PTSUNNY   50  15  24 S9        29.95F
PAGOSA SPRINGS PTSUNNY   42  24  48 N5        29.97F
TELLURIDE      CLOUDY    35  18  50 S10G18    29.99R WCI  27
WOLF CREEK PAS LGT SNOW  16  14  93 MISG      30.04R
$$

COZ009-010-012-014-032>034-037-058>063-202200-
...CENTRAL COLORADO...

CITY           SKY/WX    TMP DP  RH WIND       PRES   REMARKS
ASPEN          LGT SNOW  34  31  88 NW12      29.92R FOG     WCI  25
BUENA VISTA    LGT SNOW  35  32  90 SW5       29.94R VSB 1   WCI  30
COPPER MTN     NOT AVBL
BERTHOUD PASS  CLOUDY    21  12  68 MISG      30.00R
COTTONWOOD PAS HVY SNOW  32  30  93 W15G25    29.95S VSB<1/4 WCI  22
GUNNISON       PTSUNNY   39  25  57 NW13G23   29.94F
GRANBY         CLOUDY    45  31  60 SW5       29.88R
KREMMLING      TSTM      39  34  81 W23G36    29.89R
LEADVILLE      PTSUNNY   32  30  92 W6        29.91F WCI  26
MONARCH PASS   HVY SNOW  19  18  93 W25       30.07S VSB<1/4 WCI   2
SALIDA         CLOUDY    35  33  90 W13G18    30.01R VSB 3/4 WCI  27
SUNLIGHT       SNOW      27  23  86 SW8G16    30.02S VSB 1/4 WCI  18
WILKERSON PASS HVY SNOW  27  23  86 SW9G16    30.00S VSB<1/4 WCI  17
$$

COZ069>075-202200-
...SAN LUIS VALLEY/SANGRE DE CRISTO MOUNTAINS...

CITY           SKY/WX    TMP DP  RH WIND       PRES   REMARKS
ALAMOSA        FAIR      45  25  45 S20G25    29.91F
DEL NORTE      PTSUNNY   44  12  27 SW18G26   29.93S
LA VETA PASS   SNOW      28  23  80 S18G36    30.06R VSB 1/4 WCI  16
SAGUACHE       NOT AVBL
$$

COZ035-036-038>040-202200-
...NORTHERN COLORADO FRONT RANGE...

CITY           SKY/WX    TMP DP  RH WIND       PRES   REMARKS
DENVER INTL AP CLOUDY    53  32  44 SE23      29.88R
AURORA         CLOUDY    52  33  49 E22G30    29.88R
FRONT RANGE AP CLOUDY    54  32  43 SE29G40   29.90R
ERIE MUNI ARPT CLOUDY    51  29  42 NW7       29.94R
BOULDER MUN AP CLOUDY    50  30  46 W5        29.88F
CENTENNIAL     CLOUDY    52  32  46 S15G24    29.88R
BROOMFIELD     CLOUDY    52  28  40 N15       29.89R
FORT COLLINS   CLOUDY    53  34  48 VRB7      29.88S
LONGMONT       CLOUDY    53  30  41 NW10      29.90S
$$

COZ041-046-047-076>085-087-088-202200-
...PIKES PEAK/PALMER DIVIDE AND SOUTHERN FOOTHILLS...

CITY           SKY/WX    TMP DP  RH WIND       PRES   REMARKS
COLO. SPRINGS  LGT RAIN  42  34  73 E26G37    29.91R
A. F. ACADEMY  LGT RAIN  39  34  84 S12       29.94R
SCHRIEVER AFB  NOT AVBL
CHEYENNE MTN   LGT RAIN  37  36  93 SE9       29.88R
ELLICOTT         N/A    N/A N/A N/A SE30G40   29.91R
FALCON         CLOUDY    40  29  64 E24G36    29.94R
FORT CARSON    LGT RAIN  43  37  81 SE20G32   29.90R
LIMON          CLOUDY    37  32  82 SE35G46   29.98S
MONUMENT HILL  CLOUDY    39  30  70 SE22G29   29.94R
CANON CITY     FAIR      46  41  81 W17       29.86F
WALSENBURG     NOT AVBL
TRINIDAD       LGT RAIN  43  37  79 W18G32    29.93R
$$

COZ042>045-048>051-090-091-202200-
...NORTHEAST COLORADO...

CITY           SKY/WX    TMP DP  RH WIND       PRES   REMARKS
GREELEY ARPT   PTSUNNY   55  34  45 SE28G38   29.89R
AKRON          CLOUDY    37  34  89 SE23G38   30.03S
BURLINGTON     LGT RAIN  39  36  89 SE16      30.08R
WRAY           LGT RAIN  43  37  81 SE16      30.11F
YUMA           DRIZZLE   36  34  93 SE22      30.08S
STERLING       NOT AVBL
HOLYOKE        LGT RAIN  41  37  87 E17G24    30.13S
FORT MORGAN    CLOUDY    44  33  65 SE31G40   30.00R
$$

COZ086-089-092>099-202200-
...SOUTHEAST COLORADO...

CITY           SKY/WX    TMP DP  RH WIND       PRES   REMARKS
PUEBLO         LGT RAIN  54  38  54 SW10G23   29.86R
LA JUNTA       CLOUDY    49  34  56 SE21G29   29.96R
LAMAR          CLOUDY    44  36  73 SE20G28   30.02R
SPRINGFIELD      N/A     46  32  58 SE20G30   30.00S
$$




USA.gov is the U.S. government's official web portal to all federal, state and local government web resources and services.